| time (UTC) | temp C | wind direction | speed KPH | gust KPH | rain 1hr cm | rain 24hr cm | rain mn cm | humidity % | barometer mb |
| 20260504151045 | 15 | 258 | 6.4 | 25.7 | 0.00 | 0.66 | 0.38 | 55 | 1011.0 |
| 20260504150543 | 16 | 309 | 3.2 | 19.3 | 0.00 | 0.66 | 0.38 | 53 | 1010.9 |
| 20260504141041 | 16 | 234 | 4.8 | 14.5 | 0.00 | 0.66 | 0.38 | 47 | 1010.9 |
| 20260504140540 | 16 | 232 | 3.2 | 17.7 | 0.00 | 0.66 | 0.38 | 49 | 1010.8 |
| 20260504130536 | 17 | 275 | 4.8 | 17.7 | 0.00 | 0.66 | 0.38 | 39 | 1010.6 |
| 20260504110522 | 15 | 286 | 6.4 | 22.5 | 0.00 | 0.66 | 0.38 | 48 | 1010.1 |
| 20260504100508 | 14 | 202 | 6.4 | 12.9 | 0.00 | 0.66 | 0.38 | 53 | 1009.8 |
| 20260504081549 | 11 | 268 | 8.0 | 20.9 | 0.00 | 0.66 | 0.38 | 70 | 1009.0 |
| 20260504081049 | 11 | 234 | 1.6 | 16.1 | 0.00 | 0.66 | 0.38 | 74 | 1009.1 |
| 20260504080548 | 11 | 261 | 6.4 | 20.9 | 0.00 | 0.66 | 0.38 | 71 | 1009.0 |
| 20260504050512 | 8 | 277 | 1.6 | 9.7 | 0.00 | 0.64 | 0.36 | 97 | 1007.4 |
| 20260504050010 | 8 | 267 | 1.6 | 9.7 | 0.00 | 0.64 | 0.36 | 96 | 1007.3 |
| 20260504045509 | 8 | 271 | 1.6 | 4.8 | 0.00 | 0.64 | 0.36 | 97 | 1007.3 |
| 20260504045012 | 8 | 303 | 0.0 | 6.4 | 0.00 | 0.64 | 0.36 | 97 | 1007.2 |
| 20260504044518 | 9 | 295 | 1.6 | 6.4 | 0.00 | 0.64 | 0.36 | 97 | 1007.2 |
| 20260504044011 | 9 | 282 | 1.6 | 8.0 | 0.00 | 0.64 | 0.36 | 96 | 1007.2 |
| 20260504043506 | 9 | 286 | 1.6 | 4.8 | 0.00 | 0.64 | 0.36 | 97 | 1007.1 |
| 20260504043009 | 9 | 323 | 0.0 | 6.4 | 0.00 | 0.64 | 0.36 | 97 | 1007.2 |
| 20260504042504 | 9 | 257 | 1.6 | 6.4 | 0.00 | 0.64 | 0.36 | 97 | 1007.2 |
| 20260504042003 | 10 | 260 | 1.6 | 9.7 | 0.00 | 0.64 | 0.36 | 97 | 1007.2 |
| 20260504041504 | 10 | 278 | 1.6 | 8.0 | 0.00 | 0.64 | 0.36 | 97 | 1007.2 |
| 20260504041101 | 10 | 278 | 1.6 | 8.0 | 0.00 | 0.64 | 0.36 | 97 | 1007.1 |
| 20260504040600 | 10 | 278 | 1.6 | 8.0 | 0.03 | 0.64 | 0.36 | 97 | 1007.1 |
| 20260504040105 | 10 | 252 | 0.0 | 3.2 | 0.03 | 0.64 | 0.36 | 97 | 1007.1 |
| 20260504035559 | 10 | 252 | 0.0 | 3.2 | 0.03 | 0.64 | 0.36 | 97 | 1007.1 |
| 20260504035058 | 10 | 242 | 0.0 | 3.2 | 0.03 | 0.64 | 0.36 | 97 | 1007.1 |
| 20260504034612 | 10 | 242 | 0.0 | 6.4 | 0.03 | 0.64 | 0.36 | 97 | 1007.0 |
| 20260504034058 | 10 | 320 | 1.6 | 6.4 | 0.03 | 0.64 | 0.36 | 97 | 1007.1 |
| 20260504033600 | 10 | 36 | 0.0 | 4.8 | 0.03 | 0.64 | 0.36 | 97 | 1007.0 |
| 20260504033128 | 10 | 360 | 0.0 | 3.2 | 0.03 | 0.64 | 0.36 | 97 | 1007.0 |
| 20260504032558 | 10 | 312 | 0.0 | 3.2 | 0.05 | 0.64 | 0.36 | 97 | 1007.0 |
| 20260504032100 | 10 | 312 | 0.0 | 1.6 | 0.05 | 0.64 | 0.36 | 97 | 1006.9 |
| 20260504031603 | 10 | 312 | 0.0 | 1.6 | 0.05 | 0.64 | 0.36 | 97 | 1006.9 |
| 20260504031058 | 10 | 312 | 0.0 | 3.2 | 0.05 | 0.64 | 0.36 | 97 | 1006.9 |
| 20260504030557 | 10 | 312 | 0.0 | 3.2 | 0.03 | 0.61 | 0.33 | 97 | 1006.9 |
| 20260504030101 | 10 | 312 | 0.0 | 3.2 | 0.05 | 0.61 | 0.33 | 97 | 1006.8 |
| 20260504025557 | 10 | 312 | 0.0 | 1.6 | 0.05 | 0.61 | 0.33 | 97 | 1006.8 |
| 20260504025057 | 10 | 312 | 0.0 | 1.6 | 0.05 | 0.61 | 0.33 | 97 | 1006.8 |
| 20260504024557 | 10 | 312 | 0.0 | 3.2 | 0.05 | 0.61 | 0.33 | 97 | 1006.8 |
| 20260504024102 | 10 | 312 | 0.0 | 3.2 | 0.08 | 0.61 | 0.33 | 97 | 1006.7 |
| 20260504023557 | 10 | 312 | 0.0 | 1.6 | 0.08 | 0.61 | 0.33 | 97 | 1006.7 |
| 20260504023103 | 10 | 312 | 0.0 | 1.6 | 0.10 | 0.61 | 0.33 | 96 | 1006.7 |
| 20260504022558 | 10 | 312 | 0.0 | 0.0 | 0.08 | 0.61 | 0.33 | 96 | 1006.7 |
| 20260504022055 | 10 | 312 | 0.0 | 1.6 | 0.13 | 0.61 | 0.33 | 96 | 1006.7 |
| 20260504021557 | 10 | 312 | 0.0 | 1.6 | 0.15 | 0.61 | 0.33 | 96 | 1006.7 |
| 20260504021056 | 10 | 312 | 0.0 | 0.0 | 0.15 | 0.61 | 0.33 | 96 | 1006.6 |
| 20260504020556 | 10 | 312 | 0.0 | 3.2 | 0.18 | 0.61 | 0.33 | 96 | 1006.6 |
| 20260504020059 | 10 | 312 | 0.0 | 3.2 | 0.15 | 0.58 | 0.30 | 96 | 1006.7 |
| 20260504015554 | 10 | 312 | 0.0 | 1.6 | 0.18 | 0.58 | 0.30 | 96 | 1006.7 |
| 20260504015057 | 10 | 312 | 0.0 | 3.2 | 0.15 | 0.56 | 0.28 | 96 | 1006.7 |
| 20260504014554 | 10 | 312 | 0.0 | 3.2 | 0.15 | 0.56 | 0.28 | 96 | 1006.7 |
| 20260504014053 | 10 | 131 | 0.0 | 3.2 | 0.15 | 0.53 | 0.25 | 96 | 1006.7 |
| 20260504013552 | 10 | 5 | 0.0 | 3.2 | 0.15 | 0.53 | 0.25 | 96 | 1006.6 |
| 20260504013106 | 10 | 207 | 0.0 | 4.8 | 0.13 | 0.51 | 0.23 | 96 | 1006.7 |
| 20260504012552 | 10 | 205 | 0.0 | 4.8 | 0.13 | 0.51 | 0.23 | 96 | 1006.7 |
| 20260504012052 | 10 | 115 | 0.0 | 4.8 | 0.08 | 0.48 | 0.20 | 97 | 1006.6 |
| 20260504011551 | 10 | 181 | 0.0 | 1.6 | 0.08 | 0.46 | 0.18 | 97 | 1006.7 |
| 20260504011049 | 10 | 181 | 0.0 | 0.0 | 0.05 | 0.43 | 0.15 | 96 | 1006.7 |
| 20260504010549 | 10 | 181 | 0.0 | 0.0 | 0.05 | 0.43 | 0.15 | 96 | 1006.8 |
| 20260504010058 | 10 | 181 | 0.0 | 1.6 | 0.05 | 0.43 | 0.15 | 96 | 1006.9 |
| 20260504005552 | 10 | 181 | 0.0 | 1.6 | 0.03 | 0.41 | 0.13 | 96 | 1006.8 |
| 20260504005049 | 10 | 181 | 0.0 | 0.0 | 0.03 | 0.41 | 0.13 | 96 | 1006.7 |
| 20260504004603 | 10 | 181 | 0.0 | 0.0 | 0.05 | 0.41 | 0.13 | 96 | 1006.7 |
| 20260504004048 | 10 | 181 | 0.0 | 0.0 | 0.05 | 0.41 | 0.13 | 96 | 1006.8 |
| 20260504003547 | 10 | 181 | 0.0 | 0.0 | 0.05 | 0.41 | 0.13 | 96 | 1006.8 |
| 20260504003048 | 10 | 181 | 0.0 | 0.0 | 0.05 | 0.41 | 0.13 | 96 | 1006.8 |
| 20260504002547 | 10 | 181 | 0.0 | 0.0 | 0.05 | 0.41 | 0.13 | 96 | 1006.8 |
| 20260504002047 | 10 | 181 | 0.0 | 1.6 | 0.05 | 0.41 | 0.13 | 96 | 1006.9 |
| 20260504001546 | 10 | 181 | 0.0 | 1.6 | 0.05 | 0.38 | 0.10 | 96 | 1006.9 |
| 20260504001046 | 10 | 181 | 0.0 | 1.6 | 0.05 | 0.38 | 0.10 | 96 | 1007.1 |
| 20260504000545 | 10 | 181 | 0.0 | 3.2 | 0.05 | 0.38 | 0.10 | 96 | 1007.1 |
| 20260504000045 | 10 | 181 | 0.0 | 3.2 | 0.05 | 0.38 | 0.10 | 96 | 1007.1 |
| 20260503235543 | 10 | 181 | 0.0 | 1.6 | 0.05 | 0.38 | 0.10 | 96 | 1007.1 |
| 20260503235043 | 10 | 181 | 0.0 | 1.6 | 0.05 | 0.38 | 0.10 | 96 | 1007.1 |
| 20260503234546 | 10 | 181 | 0.0 | 1.6 | 0.05 | 0.36 | 0.08 | 96 | 1007.1 |
| 20260503234043 | 10 | 181 | 0.0 | 1.6 | 0.05 | 0.36 | 0.08 | 96 | 1007.2 |
| 20260503233545 | 10 | 181 | 0.0 | 0.0 | 0.05 | 0.36 | 0.08 | 96 | 1007.2 |
| 20260503233041 | 10 | 181 | 0.0 | 1.6 | 0.05 | 0.36 | 0.08 | 96 | 1007.3 |
| 20260503232545 | 10 | 181 | 0.0 | 1.6 | 0.05 | 0.36 | 0.08 | 96 | 1007.3 |
| 20260503232041 | 10 | 181 | 0.0 | 1.6 | 0.03 | 0.33 | 0.05 | 96 | 1007.3 |
| 20260503231540 | 10 | 181 | 0.0 | 1.6 | 0.03 | 0.33 | 0.05 | 96 | 1007.4 |
| 20260503231039 | 10 | 181 | 0.0 | 3.2 | 0.05 | 0.33 | 0.05 | 96 | 1007.4 |
| 20260503230539 | 10 | 181 | 0.0 | 3.2 | 0.03 | 0.33 | 0.05 | 96 | 1007.5 |
| 20260503230040 | 10 | 181 | 0.0 | 1.6 | 0.03 | 0.33 | 0.05 | 96 | 1007.5 |
| 20260503225538 | 10 | 181 | 0.0 | 3.2 | 0.05 | 0.33 | 0.05 | 96 | 1007.5 |
| 20260503225038 | 10 | 181 | 0.0 | 3.2 | 0.05 | 0.33 | 0.05 | 96 | 1007.5 |
| 20260503224538 | 10 | 181 | 0.0 | 3.2 | 0.05 | 0.33 | 0.05 | 96 | 1007.6 |
| 20260503224038 | 10 | 181 | 0.0 | 3.2 | 0.05 | 0.33 | 0.05 | 95 | 1007.7 |
| 20260503223537 | 10 | 181 | 1.6 | 3.2 | 0.08 | 0.33 | 0.05 | 95 | 1007.6 |
| 20260503223037 | 10 | 181 | 0.0 | 3.2 | 0.10 | 0.33 | 0.05 | 95 | 1007.6 |
| 20260503222536 | 10 | 181 | 0.0 | 3.2 | 0.13 | 0.33 | 0.05 | 95 | 1007.6 |
| 20260503222139 | 10 | 181 | 0.0 | 1.6 | 0.13 | 0.33 | 0.05 | 95 | 1007.6 |
| 20260503221541 | 10 | 181 | 0.0 | 1.6 | 0.15 | 0.33 | 0.05 | 95 | 1007.7 |
| 20260503221037 | 10 | 181 | 0.0 | 1.6 | 0.13 | 0.30 | 0.03 | 95 | 1007.7 |
| 20260503220535 | 11 | 181 | 0.0 | 1.6 | 0.15 | 0.30 | 0.03 | 95 | 1007.7 |
| 20260503220034 | 11 | 181 | 0.0 | 0.0 | 0.15 | 0.30 | 0.03 | 95 | 1007.8 |
| 20260503215533 | 11 | 181 | 0.0 | 0.0 | 0.15 | 0.28 | 0.28 | 95 | 1007.9 |
| 20260503215032 | 11 | 181 | 0.0 | 0.0 | 0.20 | 0.28 | 0.28 | 95 | 1007.9 |
| 20260503214534 | 11 | 181 | 0.0 | 1.6 | 0.23 | 0.25 | 0.25 | 95 | 1007.9 |
| 20260503214035 | 11 | 181 | 0.0 | 1.6 | 0.20 | 0.23 | 0.23 | 95 | 1008.1 |
| 20260503213532 | 11 | 181 | 0.0 | 0.0 | 0.23 | 0.23 | 0.23 | 95 | 1008.1 |
| 20260503213044 | 11 | 181 | 0.0 | 0.0 | 0.20 | 0.23 | 0.23 | 95 | 1008.2 |
| 20260503212532 | 11 | 181 | 0.0 | 0.0 | 0.18 | 0.20 | 0.20 | 95 | 1008.3 |
| 20260503212032 | 11 | 181 | 0.0 | 0.0 | 0.18 | 0.20 | 0.20 | 95 | 1008.4 |
| 20260503211531 | 11 | 181 | 0.0 | 1.6 | 0.15 | 0.18 | 0.18 | 95 | 1008.5 |
| 20260503211031 | 11 | 181 | 0.0 | 1.6 | 0.15 | 0.18 | 0.18 | 95 | 1008.6 |
| 20260503210533 | 11 | 181 | 0.0 | 4.8 | 0.15 | 0.15 | 0.15 | 95 | 1008.8 |
| 20260503210031 | 11 | 181 | 0.0 | 8.0 | 0.15 | 0.15 | 0.15 | 95 | 1008.8 |
| 20260503205531 | 11 | 195 | 3.2 | 11.3 | 0.10 | 0.13 | 0.13 | 94 | 1009.0 |
| 20260503205031 | 11 | 144 | 6.4 | 11.3 | 0.05 | 0.08 | 0.08 | 94 | 1009.2 |
| 20260503204545 | 11 | 169 | 3.2 | 6.4 | 0.03 | 0.05 | 0.05 | 94 | 1009.2 |
| 20260503204029 | 11 | 69 | 1.6 | 3.2 | 0.00 | 0.03 | 0.03 | 94 | 1008.7 |
| 20260503203529 | 11 | 69 | 0.0 | 0.0 | 0.00 | 0.03 | 0.03 | 94 | 1008.3 |
| 20260503203031 | 11 | 69 | 0.0 | 0.0 | 0.00 | 0.03 | 0.03 | 94 | 1008.1 |
| 20260503202529 | 11 | 69 | 0.0 | 0.0 | 0.00 | 0.03 | 0.03 | 94 | 1008.0 |
| 20260503202029 | 11 | 69 | 0.0 | 0.0 | 0.00 | 0.03 | 0.03 | 93 | 1008.0 |
| 20260503201529 | 11 | 69 | 0.0 | 0.0 | 0.00 | 0.03 | 0.03 | 93 | 1008.0 |
| 20260503201028 | 11 | 69 | 0.0 | 0.0 | 0.00 | 0.03 | 0.03 | 93 | 1008.0 |
| 20260503200528 | 11 | 69 | 0.0 | 0.0 | 0.00 | 0.03 | 0.03 | 93 | 1008.0 |
| 20260503200028 | 11 | 69 | 0.0 | 1.6 | 0.03 | 0.03 | 0.03 | 93 | 1008.0 |
| 20260503195527 | 11 | 69 | 0.0 | 1.6 | 0.03 | 0.03 | 0.03 | 93 | 1007.9 |
| 20260503195026 | 11 | 69 | 0.0 | 0.0 | 0.03 | 0.03 | 0.03 | 93 | 1008.1 |
| 20260503194526 | 11 | 69 | 0.0 | 0.0 | 0.03 | 0.03 | 0.03 | 93 | 1008.2 |
| 20260503194028 | 11 | 69 | 0.0 | 0.0 | 0.03 | 0.03 | 0.03 | 92 | 1008.2 |
| 20260503193526 | 11 | 69 | 0.0 | 0.0 | 0.03 | 0.03 | 0.03 | 92 | 1008.1 |
| 20260503193033 | 11 | 69 | 0.0 | 4.8 | 0.03 | 0.03 | 0.03 | 92 | 1008.3 |
| 20260503192525 | 11 | 69 | 0.0 | 4.8 | 0.03 | 0.03 | 0.03 | 91 | 1008.3 |
| 20260503192024 | 11 | 198 | 0.0 | 0.0 | 0.03 | 0.03 | 0.03 | 91 | 1008.3 |
| 20260503191523 | 11 | 198 | 0.0 | 0.0 | 0.03 | 0.03 | 0.03 | 90 | 1008.4 |
| 20260503191023 | 12 | 198 | 0.0 | 0.0 | 0.03 | 0.03 | 0.03 | 89 | 1008.5 |
| 20260503190522 | 12 | 198 | 0.0 | 0.0 | 0.03 | 0.03 | 0.03 | 89 | 1008.6 |
| 20260503190021 | 12 | 198 | 0.0 | 0.0 | 0.00 | 0.00 | 0.00 | 89 | 1008.7 |
| 20260503185520 | 12 | 198 | 0.0 | 0.0 | 0.00 | 0.00 | 0.00 | 89 | 1008.7 |
| 20260503185021 | 12 | 198 | 0.0 | 0.0 | 0.00 | 0.00 | 0.00 | 88 | 1008.7 |
| 20260503184533 | 12 | 198 | 0.0 | 0.0 | 0.00 | 0.00 | 0.00 | 87 | 1008.8 |
| 20260503184020 | 12 | 198 | 0.0 | 0.0 | 0.00 | 0.00 | 0.00 | 87 | 1008.8 |
| 20260503183520 | 12 | 198 | 0.0 | 3.2 | 0.00 | 0.00 | 0.00 | 86 | 1008.9 |
| 20260503183021 | 12 | 198 | 0.0 | 4.8 | 0.00 | 0.00 | 0.00 | 86 | 1008.9 |
| 20260503182518 | 12 | 198 | 0.0 | 4.8 | 0.00 | 0.00 | 0.00 | 85 | 1009.0 |
| 20260503182018 | 13 | 198 | 1.6 | 4.8 | 0.00 | 0.00 | 0.00 | 85 | 1009.0 |
| 20260503181518 | 13 | 198 | 1.6 | 3.2 | 0.00 | 0.00 | 0.00 | 86 | 1009.0 |
| 20260503181019 | 13 | 198 | 0.0 | 3.2 | 0.00 | 0.00 | 0.00 | 87 | 1009.0 |
| 20260503180518 | 12 | 198 | 0.0 | 4.8 | 0.00 | 0.00 | 0.00 | 87 | 1009.0 |
| 20260503180024 | 12 | 198 | 1.6 | 4.8 | 0.00 | 0.00 | 0.00 | 87 | 1009.0 |
| 20260503175517 | 12 | 198 | 0.0 | 4.8 | 0.00 | 0.00 | 0.00 | 88 | 1009.0 |
| 20260503175017 | 12 | 198 | 1.6 | 4.8 | 0.00 | 0.00 | 0.00 | 88 | 1009.0 |
| 20260503174518 | 12 | 198 | 0.0 | 4.8 | 0.00 | 0.00 | 0.00 | 88 | 1008.9 |
| 20260503174017 | 12 | 198 | 1.6 | 4.8 | 0.00 | 0.00 | 0.00 | 89 | 1009.0 |
| 20260503173517 | 12 | 200 | 0.0 | 6.4 | 0.00 | 0.00 | 0.00 | 88 | 1009.0 |
| 20260503173017 | 12 | 192 | 1.6 | 6.4 | 0.00 | 0.00 | 0.00 | 88 | 1009.0 |
| 20260503172515 | 12 | 181 | 1.6 | 8.0 | 0.00 | 0.00 | 0.00 | 88 | 1009.0 |
| 20260503172015 | 12 | 208 | 3.2 | 8.0 | 0.00 | 0.00 | 0.00 | 87 | 1009.1 |
| 20260503171514 | 12 | 187 | 1.6 | 6.4 | 0.00 | 0.00 | 0.00 | 87 | 1009.1 |
| 20260503171017 | 12 | 180 | 1.6 | 8.0 | 0.00 | 0.00 | 0.00 | 87 | 1009.1 |
| 20260503170514 | 12 | 159 | 1.6 | 9.7 | 0.00 | 0.00 | 0.00 | 87 | 1009.1 |